TimeMST,TemperatureF,Dew PointF,Humidity,Sea Level PressureIn,VisibilityMPH,Wind Direction,Wind SpeedMPH,Gust SpeedMPH,PrecipitationIn,Events,Conditions,WindDirDegrees,DateUTC
12:53 AM,43.0,17.1,35,29.83,10.0,WSW,17.3,-,N/A,,Clear,250,2013-03-08 07:53:00
1:53 AM,41.0,15.1,35,29.82,10.0,West,15.0,-,N/A,,Clear,270,2013-03-08 08:53:00
2:53 AM,39.0,14.0,36,29.79,10.0,WNW,8.1,-,N/A,,Clear,290,2013-03-08 09:53:00
3:53 AM,36.0,14.0,41,29.81,10.0,WSW,9.2,-,N/A,,Clear,250,2013-03-08 10:53:00
4:53 AM,36.0,15.1,43,29.84,10.0,SSW,11.5,-,N/A,,Clear,200,2013-03-08 11:53:00
5:53 AM,36.0,16.0,44,29.86,10.0,SSW,13.8,-,N/A,,Clear,210,2013-03-08 12:53:00
6:53 AM,39.0,17.1,41,29.87,10.0,SW,12.7,-,N/A,,Clear,220,2013-03-08 13:53:00
7:53 AM,46.9,16.0,29,29.84,10.0,SW,9.2,-,N/A,,Overcast,230,2013-03-08 14:53:00
8:53 AM,48.9,17.1,28,29.82,10.0,SSW,6.9,-,N/A,,Mostly Cloudy,210,2013-03-08 15:53:00
9:53 AM,54.0,16.0,22,29.79,10.0,SW,6.9,-,N/A,,Clear,230,2013-03-08 16:53:00
10:53 AM,55.9,18.0,23,29.78,10.0,SW,23.0,31.1,N/A,,Mostly Cloudy,220,2013-03-08 17:53:00
11:53 AM,55.0,19.0,24,29.76,10.0,WSW,18.4,31.1,N/A,,Scattered Clouds,250,2013-03-08 18:53:00
12:53 PM,51.1,25.0,36,29.77,10.0,WSW,24.2,29.9,N/A,,Overcast,250,2013-03-08 19:53:00
1:53 PM,55.9,26.1,32,29.70,10.0,SSW,25.3,36.8,N/A,,Scattered Clouds,200,2013-03-08 20:53:00
2:53 PM,53.1,26.1,35,29.71,10.0,SSW,26.5,36.8,N/A,,Overcast,210,2013-03-08 21:53:00
3:12 PM,39.2,33.8,81,29.88,2.5,WNW,32.2,43.7,0.00,Rain,Heavy Rain,290,2013-03-08 22:12:00
3:26 PM,39.2,37.4,93,29.89,9.0,West,20.7,35.7,0.02,Rain,Light Rain,280,2013-03-08 22:26:00
3:36 PM,39.2,37.4,93,29.89,10.0,West,21.9,-,0.02,Rain,Light Rain,280,2013-03-08 22:36:00
3:53 PM,39.9,37.0,89,29.83,4.0,West,16.1,-,0.02,Rain,Light Rain,280,2013-03-08 22:53:00
4:13 PM,39.2,35.6,87,29.88,2.5,West,9.2,24.2,0.05,Rain,Rain,270,2013-03-08 23:13:00
4:22 PM,39.2,37.4,93,29.88,5.0,West,13.8,-,0.07,Rain,Light Rain,270,2013-03-08 23:22:00
4:44 PM,41.0,37.4,87,29.86,10.0,WSW,11.5,-,0.07,,Mostly Cloudy,240,2013-03-08 23:44:00
4:53 PM,41.0,37.0,86,29.79,10.0,SW,11.5,-,0.07,,Mostly Cloudy,230,2013-03-08 23:53:00
5:36 PM,41.0,35.6,81,29.86,6.0,SSW,26.5,39.1,0.00,Rain,Rain,210,2013-03-09 00:36:00
5:53 PM,39.9,36.0,86,29.77,10.0,SSW,20.7,-,0.01,,Mostly Cloudy,210,2013-03-09 00:53:00
6:53 PM,39.0,36.0,89,29.78,6.0,SSW,23.0,27.6,0.00,Rain,Rain,210,2013-03-09 01:53:00
7:53 PM,37.9,36.0,93,29.71,10.0,SSW,16.1,26.5,0.03,,Partly Cloudy,210,2013-03-09 02:53:00
8:53 PM,35.1,33.1,92,29.73,3.0,West,27.6,34.5,0.02,Rain,Rain,270,2013-03-09 03:53:00
8:55 PM,33.8,30.2,87,29.83,2.5,West,23.0,34.5,0.00,Snow,Light Snow,270,2013-03-09 03:55:00
8:58 PM,33.8,30.2,87,29.83,3.0,West,21.9,34.5,0.00,Snow,Light Snow,270,2013-03-09 03:58:00
9:07 PM,33.8,30.2,87,29.83,9.0,West,18.4,27.6,0.00,,Overcast,270,2013-03-09 04:07:00
9:43 PM,35.6,33.8,93,29.81,10.0,WSW,13.8,-,0.00,,Overcast,250,2013-03-09 04:43:00
9:53 PM,36.0,33.1,89,29.68,10.0,SW,17.3,-,0.01,Rain,Light Rain,230,2013-03-09 04:53:00
10:06 PM,35.6,33.8,93,29.81,2.5,SW,29.9,38.0,0.02,Rain,Heavy Rain,220,2013-03-09 05:06:00
10:20 PM,35.6,33.8,93,29.81,5.0,WSW,19.6,28.8,0.06,Rain,Rain,240,2013-03-09 05:20:00
10:53 PM,37.0,34.0,89,29.65,8.0,SW,20.7,27.6,0.09,Rain,Light Rain,230,2013-03-09 05:53:00
11:09 PM,35.6,33.8,93,29.80,10.0,WSW,21.9,31.1,0.00,Rain,Light Rain,240,2013-03-09 06:09:00
11:30 PM,35.6,30.2,81,29.79,3.0,WSW,17.3,31.1,0.02,Snow,Light Snow,240,2013-03-09 06:30:00
11:41 PM,35.6,32.0,87,29.78,10.0,WSW,16.1,-,0.02,,Overcast,250,2013-03-09 06:41:00
11:53 PM,35.1,32.0,89,29.64,10.0,West,13.8,-,0.02,,Overcast,260,2013-03-09 06:53:00